Time,TemperatureF,DewpointF,PressureIn,WindDirection,WindDirectionDegrees,WindSpeedMPH,WindSpeedGustMPH,Humidity,HourlyPrecipIn,Conditions,Clouds,dailyrainin,SoftwareType,DateUTC
2013-02-22 00:00:00,35.5,24.5,30.06,WSW,246,1.0,1.0,64,0.00,,,0.00,Wunderground v.1.13,2013-02-22 08:00:00,
2013-02-22 00:06:00,35.2,23.9,30.06,WSW,246,1.0,2.0,63,0.00,,,0.00,Wunderground v.1.13,2013-02-22 08:06:00,
2013-02-22 00:11:00,34.9,23.9,30.06,WSW,243,1.0,2.0,64,0.00,,,0.00,Wunderground v.1.13,2013-02-22 08:11:00,
2013-02-22 00:16:00,35.0,23.7,30.06,West,272,2.0,2.0,63,0.00,,,0.00,Wunderground v.1.13,2013-02-22 08:16:00,
2013-02-22 00:22:00,36.8,24.6,30.06,West,265,4.0,9.0,61,0.00,,,0.00,Wunderground v.1.13,2013-02-22 08:22:00,
2013-02-22 00:28:00,38.0,24.9,30.06,WNW,282,3.0,4.0,59,0.00,,,0.00,Wunderground v.1.13,2013-02-22 08:28:00,
2013-02-22 00:34:00,39.1,25.6,30.06,West,267,4.0,7.0,58,0.00,,,0.00,Wunderground v.1.13,2013-02-22 08:34:00,
2013-02-22 00:40:00,39.2,25.2,30.06,West,263,5.0,5.0,57,0.00,,,0.00,Wunderground v.1.13,2013-02-22 08:40:00,
2013-02-22 00:45:00,39.1,24.3,30.06,WSW,253,4.0,4.0,55,0.00,,,0.00,Wunderground v.1.13,2013-02-22 08:45:00,
2013-02-22 00:51:00,38.6,24.7,30.06,WSW,246,3.0,3.0,57,0.00,,,0.00,Wunderground v.1.13,2013-02-22 08:51:00,
2013-02-22 00:57:00,38.3,24.4,30.06,WSW,244,1.0,2.0,57,0.00,,,0.00,Wunderground v.1.13,2013-02-22 08:57:00,
2013-02-22 01:03:00,37.8,24.7,30.06,WSW,244,1.0,4.0,59,0.00,,,0.00,Wunderground v.1.13,2013-02-22 09:03:00,
2013-02-22 01:08:00,37.3,25.1,30.06,West,274,0.0,1.0,61,0.00,,,0.00,Wunderground v.1.13,2013-02-22 09:08:00,
2013-02-22 01:14:00,36.9,24.7,30.06,West,272,0.0,1.0,61,0.00,,,0.00,Wunderground v.1.13,2013-02-22 09:14:00,
2013-02-22 01:20:00,36.2,23.6,30.06,West,272,0.0,0.0,60,0.00,,,0.00,Wunderground v.1.13,2013-02-22 09:20:00,
2013-02-22 01:26:00,35.3,23.6,30.06,West,268,0.0,1.0,62,0.00,,,0.00,Wunderground v.1.13,2013-02-22 09:26:00,
2013-02-22 01:32:00,34.4,23.1,30.07,WSW,250,0.0,0.0,63,0.00,,,0.00,Wunderground v.1.13,2013-02-22 09:32:00,
2013-02-22 01:38:00,33.8,22.9,30.07,WSW,244,0.0,0.0,64,0.00,,,0.00,Wunderground v.1.13,2013-02-22 09:38:00,
2013-02-22 01:44:00,33.2,23.1,30.07,West,271,0.0,1.0,66,0.00,,,0.00,Wunderground v.1.13,2013-02-22 09:44:00,
2013-02-22 01:50:00,32.9,23.1,30.07,West,271,0.0,0.0,67,0.00,,,0.00,Wunderground v.1.13,2013-02-22 09:50:00,
2013-02-22 01:56:00,32.7,23.3,30.07,West,271,0.0,0.0,68,0.00,,,0.00,Wunderground v.1.13,2013-02-22 09:56:00,
2013-02-22 02:02:00,32.5,23.1,30.07,West,271,0.0,6.0,68,0.00,,,0.00,Wunderground v.1.13,2013-02-22 10:02:00,
2013-02-22 02:07:00,32.4,23.4,30.07,West,271,0.0,0.0,69,0.00,,,0.00,Wunderground v.1.13,2013-02-22 10:07:00,
2013-02-22 02:13:00,32.2,23.2,30.07,West,271,0.0,0.0,69,0.00,,,0.00,Wunderground v.1.13,2013-02-22 10:13:00,
2013-02-22 02:19:00,32.1,23.1,30.07,West,270,0.0,0.0,69,0.00,,,0.00,Wunderground v.1.13,2013-02-22 10:19:00,
2013-02-22 02:25:00,31.8,22.8,30.07,West,270,0.0,0.0,69,0.00,,,0.00,Wunderground v.1.13,2013-02-22 10:25:00,
2013-02-22 02:30:00,31.6,22.6,30.07,West,270,0.0,0.0,69,0.00,,,0.00,Wunderground v.1.13,2013-02-22 10:30:00,
2013-02-22 02:36:00,31.5,22.5,30.07,West,270,0.0,0.0,69,0.00,,,0.00,Wunderground v.1.13,2013-02-22 10:36:00,
2013-02-22 02:42:00,31.2,22.2,30.07,SSE,161,0.0,0.0,69,0.00,,,0.00,Wunderground v.1.13,2013-02-22 10:42:00,
2013-02-22 02:48:00,30.4,21.1,30.08,SW,226,0.0,0.0,68,0.00,,,0.00,Wunderground v.1.13,2013-02-22 10:48:00,
2013-02-22 02:54:00,29.8,20.9,30.08,SW,236,0.0,0.0,69,0.00,,,0.00,Wunderground v.1.13,2013-02-22 10:54:00,
2013-02-22 03:00:00,29.3,20.4,30.08,SW,232,0.0,0.0,69,0.00,,,0.00,Wunderground v.1.13,2013-02-22 11:00:00,
2013-02-22 03:05:00,29.0,20.4,30.08,SW,229,0.0,0.0,70,0.00,,,0.00,Wunderground v.1.13,2013-02-22 11:05:00,
2013-02-22 03:11:00,28.8,20.9,30.08,SW,227,0.0,0.0,72,0.00,,,0.00,Wunderground v.1.13,2013-02-22 11:11:00,
2013-02-22 03:17:00,28.5,20.3,30.07,SSE,162,1.0,3.0,71,0.00,,,0.00,Wunderground v.1.13,2013-02-22 11:17:00,
2013-02-22 03:23:00,27.9,20.0,30.07,SSW,208,2.0,2.0,72,0.00,,,0.00,Wunderground v.1.13,2013-02-22 11:23:00,
2013-02-22 03:29:00,27.9,20.0,30.08,SSW,208,1.0,2.0,72,0.00,,,0.00,Wunderground v.1.13,2013-02-22 11:29:00,
2013-02-22 03:35:00,27.8,19.9,30.08,SSW,203,1.0,2.0,72,0.00,,,0.00,Wunderground v.1.13,2013-02-22 11:35:00,
2013-02-22 03:41:00,27.5,19.7,30.08,SW,216,1.0,2.0,72,0.00,,,0.00,Wunderground v.1.13,2013-02-22 11:41:00,
2013-02-22 03:47:00,27.3,19.5,30.08,SW,220,0.0,1.0,72,0.00,,,0.00,Wunderground v.1.13,2013-02-22 11:47:00,
2013-02-22 03:53:00,27.3,19.8,30.08,SW,222,0.0,0.0,73,0.00,,,0.00,Wunderground v.1.13,2013-02-22 11:53:00,
2013-02-22 03:59:00,27.5,20.0,30.08,SW,220,0.0,1.0,73,0.00,,,0.00,Wunderground v.1.13,2013-02-22 11:59:00,
2013-02-22 04:05:00,27.8,20.3,30.08,SW,220,0.0,0.0,73,0.00,,,0.00,Wunderground v.1.13,2013-02-22 12:05:00,
2013-02-22 04:11:00,27.9,20.4,30.08,SW,227,0.0,0.0,73,0.00,,,0.00,Wunderground v.1.13,2013-02-22 12:11:00,
2013-02-22 04:17:00,28.1,20.9,30.09,SW,230,0.0,0.0,74,0.00,,,0.00,Wunderground v.1.13,2013-02-22 12:17:00,
2013-02-22 04:23:00,28.5,21.6,30.09,SW,227,0.0,1.0,75,0.00,,,0.00,Wunderground v.1.13,2013-02-22 12:23:00,
2013-02-22 04:29:00,29.1,22.2,30.09,SW,230,0.0,0.0,75,0.00,,,0.00,Wunderground v.1.13,2013-02-22 12:29:00,
2013-02-22 04:35:00,29.3,22.0,30.09,SW,230,0.0,0.0,74,0.00,,,0.00,Wunderground v.1.13,2013-02-22 12:35:00,
2013-02-22 04:41:00,29.3,21.7,30.09,SW,230,0.0,0.0,73,0.00,,,0.00,Wunderground v.1.13,2013-02-22 12:41:00,
2013-02-22 04:47:00,28.8,20.9,30.09,SW,233,0.0,0.0,72,0.00,,,0.00,Wunderground v.1.13,2013-02-22 12:47:00,
2013-02-22 04:53:00,28.7,21.1,30.09,SW,234,0.0,0.0,73,0.00,,,0.00,Wunderground v.1.13,2013-02-22 12:53:00,
2013-02-22 04:59:00,28.5,20.9,30.09,SW,234,0.0,0.0,73,0.00,,,0.00,Wunderground v.1.13,2013-02-22 12:59:00,
2013-02-22 05:05:00,28.4,21.5,30.09,SW,233,0.0,0.0,75,0.00,,,0.00,Wunderground v.1.13,2013-02-22 13:05:00,
2013-02-22 05:11:00,28.5,21.3,30.09,SW,232,0.0,0.0,74,0.00,,,0.00,Wunderground v.1.13,2013-02-22 13:11:00,
2013-02-22 05:17:00,28.5,21.3,30.12,SW,232,0.0,0.0,74,0.00,,,0.00,Wunderground v.1.13,2013-02-22 13:17:00,
2013-02-22 05:23:00,28.4,21.2,30.12,SW,233,0.0,0.0,74,0.00,,,0.00,Wunderground v.1.13,2013-02-22 13:23:00,
2013-02-22 05:29:00,28.4,21.5,30.13,SW,234,0.0,0.0,75,0.00,,,0.00,Wunderground v.1.13,2013-02-22 13:29:00,
2013-02-22 05:35:00,28.2,21.3,30.13,SW,233,0.0,0.0,75,0.00,,,0.00,Wunderground v.1.13,2013-02-22 13:35:00,
2013-02-22 05:41:00,28.2,21.3,30.13,SW,234,0.0,0.0,75,0.00,,,0.00,Wunderground v.1.13,2013-02-22 13:41:00,
2013-02-22 05:47:00,28.1,21.2,30.13,SW,234,0.0,0.0,75,0.00,,,0.00,Wunderground v.1.13,2013-02-22 13:47:00,
2013-02-22 05:53:00,28.1,21.2,30.13,SW,234,0.0,0.0,75,0.00,,,0.00,Wunderground v.1.13,2013-02-22 13:53:00,
2013-02-22 05:59:00,28.1,21.5,30.13,SW,233,0.0,0.0,76,0.00,,,0.00,Wunderground v.1.13,2013-02-22 13:59:00,
2013-02-22 06:05:00,27.9,21.3,30.13,SW,232,0.0,0.0,76,0.00,,,0.00,Wunderground v.1.13,2013-02-22 14:05:00,
2013-02-22 06:11:00,27.8,21.5,30.13,SW,233,0.0,1.0,77,0.00,,,0.00,Wunderground v.1.13,2013-02-22 14:11:00,
2013-02-22 06:17:00,27.6,21.3,30.14,SW,233,0.0,0.0,77,0.00,,,0.00,Wunderground v.1.13,2013-02-22 14:17:00,
2013-02-22 06:23:00,27.5,21.2,30.14,SW,232,0.0,0.0,77,0.00,,,0.00,Wunderground v.1.13,2013-02-22 14:23:00,
2013-02-22 06:29:00,27.2,20.6,30.15,SW,230,0.0,0.0,76,0.00,,,0.00,Wunderground v.1.13,2013-02-22 14:29:00,
2013-02-22 06:35:00,26.6,19.4,30.15,WSW,251,0.0,0.0,74,0.00,,,0.00,Wunderground v.1.13,2013-02-22 14:35:00,
2013-02-22 06:41:00,25.8,18.3,30.15,West,263,0.0,0.0,73,0.00,,,0.00,Wunderground v.1.13,2013-02-22 14:41:00,
2013-02-22 06:46:00,25.4,17.9,30.16,West,265,0.0,0.0,73,0.00,,,0.00,Wunderground v.1.13,2013-02-22 14:46:00,
2013-02-22 06:52:00,25.3,18.2,30.16,West,267,0.0,0.0,74,0.00,,,0.00,Wunderground v.1.13,2013-02-22 14:52:00,
2013-02-22 06:58:00,25.4,18.6,30.16,West,267,0.0,0.0,75,0.00,,,0.00,Wunderground v.1.13,2013-02-22 14:58:00,
2013-02-22 07:03:00,25.7,18.9,30.17,West,267,0.0,1.0,75,0.00,,,0.00,Wunderground v.1.13,2013-02-22 15:03:00,
2013-02-22 07:09:00,25.8,19.0,30.17,West,267,0.0,0.0,75,0.00,,,0.00,Wunderground v.1.13,2013-02-22 15:09:00,
2013-02-22 07:15:00,26.0,19.2,30.18,SSW,205,0.0,0.0,75,0.00,,,0.00,Wunderground v.1.13,2013-02-22 15:15:00,
2013-02-22 07:20:00,26.3,19.5,30.18,West,268,0.0,0.0,75,0.00,,,0.00,Wunderground v.1.13,2013-02-22 15:20:00,
2013-02-22 07:25:00,26.9,20.3,30.18,West,268,0.0,0.0,76,0.00,,,0.00,Wunderground v.1.13,2013-02-22 15:25:00,
2013-02-22 07:31:00,27.6,20.7,30.18,West,268,0.0,0.0,75,0.00,,,0.00,Wunderground v.1.13,2013-02-22 15:31:00,
2013-02-22 07:37:00,28.4,21.2,30.18,West,268,0.0,0.0,74,0.00,,,0.00,Wunderground v.1.13,2013-02-22 15:37:00,
2013-02-22 07:42:00,29.3,21.7,30.18,West,268,0.0,1.0,73,0.00,,,0.00,Wunderground v.1.13,2013-02-22 15:42:00,
2013-02-22 07:48:00,30.4,22.4,30.18,West,268,0.0,0.0,72,0.00,,,0.00,Wunderground v.1.13,2013-02-22 15:48:00,
2013-02-22 07:54:00,31.6,22.9,30.18,West,268,0.0,0.0,70,0.00,,,0.00,Wunderground v.1.13,2013-02-22 15:54:00,
2013-02-22 08:00:00,32.9,23.1,30.18,West,268,0.0,0.0,67,0.00,,,0.00,Wunderground v.1.13,2013-02-22 16:00:00,
2013-02-22 08:05:00,34.3,23.7,30.18,West,267,0.0,0.0,65,0.00,,,0.00,Wunderground v.1.13,2013-02-22 16:05:00,
2013-02-22 08:11:00,35.5,24.9,30.18,SSE,164,0.0,0.0,65,0.00,,,0.00,Wunderground v.1.13,2013-02-22 16:11:00,
2013-02-22 08:17:00,36.6,25.2,30.18,SSE,164,0.0,0.0,63,0.00,,,0.00,Wunderground v.1.13,2013-02-22 16:17:00,
2013-02-22 08:23:00,37.6,25.0,30.18,SSE,162,0.0,1.0,60,0.00,,,0.00,Wunderground v.1.13,2013-02-22 16:23:00,
2013-02-22 08:29:00,37.9,25.2,30.18,SSE,162,0.0,1.0,60,0.00,,,0.00,Wunderground v.1.13,2013-02-22 16:29:00,
2013-02-22 08:35:00,38.3,24.8,30.18,SSE,162,1.0,1.0,58,0.00,,,0.00,Wunderground v.1.13,2013-02-22 16:35:00,
2013-02-22 08:41:00,39.1,25.6,30.18,SSE,151,1.0,1.0,58,0.00,,,0.00,Wunderground v.1.13,2013-02-22 16:41:00,
2013-02-22 08:47:00,39.8,25.4,30.17,East,88,1.0,2.0,56,0.00,,,0.00,Wunderground v.1.13,2013-02-22 16:47:00,
2013-02-22 08:53:00,40.5,25.6,30.17,ESE,119,1.0,3.0,55,0.00,,,0.00,Wunderground v.1.13,2013-02-22 16:53:00,
2013-02-22 08:59:00,40.9,25.5,30.17,East,95,1.0,2.0,54,0.00,,,0.00,Wunderground v.1.13,2013-02-22 16:59:00,
2013-02-22 09:05:00,41.5,25.6,30.17,East,99,1.0,1.0,53,0.00,,,0.00,Wunderground v.1.13,2013-02-22 17:05:00,
2013-02-22 09:11:00,42.1,25.7,30.17,ESE,123,1.0,2.0,52,0.00,,,0.00,Wunderground v.1.13,2013-02-22 17:11:00,
2013-02-22 09:17:00,42.6,25.7,30.17,SE,126,2.0,3.0,51,0.00,,,0.00,Wunderground v.1.13,2013-02-22 17:17:00,
2013-02-22 09:23:00,43.3,25.4,30.17,SE,127,1.0,2.0,49,0.00,,,0.00,Wunderground v.1.13,2013-02-22 17:23:00,
2013-02-22 09:29:00,44.2,25.2,30.17,ESE,103,1.0,3.0,47,0.00,,,0.00,Wunderground v.1.13,2013-02-22 17:29:00,
2013-02-22 09:35:00,44.8,25.3,30.16,East,89,1.0,1.0,46,0.00,,,0.00,Wunderground v.1.13,2013-02-22 17:35:00,
2013-02-22 09:41:00,45.2,24.6,30.16,East,99,1.0,1.0,44,0.00,,,0.00,Wunderground v.1.13,2013-02-22 17:41:00,
2013-02-22 09:47:00,45.8,24.5,30.16,East,100,1.0,3.0,43,0.00,,,0.00,Wunderground v.1.13,2013-02-22 17:47:00,
2013-02-22 09:53:00,46.7,24.2,30.16,East,97,0.0,2.0,41,0.00,,,0.00,Wunderground v.1.13,2013-02-22 17:53:00,
2013-02-22 09:59:00,47.3,24.8,30.16,East,90,1.0,2.0,41,0.00,,,0.00,Wunderground v.1.13,2013-02-22 17:59:00,
2013-02-22 10:05:00,47.9,24.7,30.16,East,83,1.0,1.0,40,0.00,,,0.00,Wunderground v.1.13,2013-02-22 18:05:00,
2013-02-22 10:11:00,48.8,24.3,30.16,East,92,1.0,1.0,38,0.00,,,0.00,Wunderground v.1.13,2013-02-22 18:11:00,
2013-02-22 10:17:00,49.2,24.6,30.15,East,90,1.0,2.0,38,0.00,,,0.00,Wunderground v.1.13,2013-02-22 18:17:00,
2013-02-22 10:23:00,49.8,23.2,30.15,North,359,1.0,1.0,35,0.00,,,0.00,Wunderground v.1.13,2013-02-22 18:23:00,
2013-02-22 10:29:00,50.4,23.7,30.15,North,0,0.0,0.0,35,0.00,,,0.00,Wunderground v.1.13,2013-02-22 18:29:00,
2013-02-22 10:35:00,51.6,22.7,30.15,North,0,0.0,0.0,32,0.00,,,0.00,Wunderground v.1.13,2013-02-22 18:35:00,
2013-02-22 10:41:00,52.0,22.3,30.15,North,359,0.0,1.0,31,0.00,,,0.00,Wunderground v.1.13,2013-02-22 18:41:00,
2013-02-22 10:47:00,52.2,23.2,30.14,NW,326,1.0,2.0,32,0.00,,,0.00,Wunderground v.1.13,2013-02-22 18:47:00,
2013-02-22 10:53:00,52.6,22.0,30.14,NW,326,1.0,2.0,30,0.00,,,0.00,Wunderground v.1.13,2013-02-22 18:53:00,
2013-02-22 10:59:00,52.9,21.5,30.14,South,186,1.0,3.0,29,0.00,,,0.00,Wunderground v.1.13,2013-02-22 18:59:00,
2013-02-22 11:04:00,52.9,19.8,30.13,South,191,1.0,3.0,27,0.00,,,0.00,Wunderground v.1.13,2013-02-22 19:04:00,
2013-02-22 11:10:00,52.9,20.6,30.13,South,191,1.0,1.0,28,0.00,,,0.00,Wunderground v.1.13,2013-02-22 19:10:00,
2013-02-22 11:16:00,53.8,19.7,30.13,NE,37,1.0,1.0,26,0.00,,,0.00,Wunderground v.1.13,2013-02-22 19:16:00,
2013-02-22 11:22:00,53.9,17.9,30.13,NE,37,1.0,1.0,24,0.00,,,0.00,Wunderground v.1.13,2013-02-22 19:22:00,
2013-02-22 11:28:00,54.7,19.5,30.13,NE,37,0.0,0.0,25,0.00,,,0.00,Wunderground v.1.13,2013-02-22 19:28:00,
2013-02-22 11:34:00,55.1,19.9,30.13,NNE,16,1.0,4.0,25,0.00,,,0.00,Wunderground v.1.13,2013-02-22 19:34:00,
2013-02-22 11:40:00,55.7,18.4,30.13,NNE,18,1.0,4.0,23,0.00,,,0.00,Wunderground v.1.13,2013-02-22 19:40:00,
2013-02-22 11:45:00,55.9,18.6,30.12,ESE,106,2.0,2.0,23,0.00,,,0.00,Wunderground v.1.13,2013-02-22 19:45:00,
2013-02-22 11:51:00,55.9,18.6,30.12,ENE,68,1.0,4.0,23,0.00,,,0.00,Wunderground v.1.13,2013-02-22 19:51:00,
2013-02-22 11:57:00,56.5,18.1,30.12,NNE,30,1.0,2.0,22,0.00,,,0.00,Wunderground v.1.13,2013-02-22 19:57:00,
2013-02-22 12:03:00,56.7,17.1,30.12,North,352,1.0,3.0,21,0.00,,,0.00,Wunderground v.1.13,2013-02-22 20:03:00,
2013-02-22 12:08:00,56.7,16.0,30.12,North,0,1.0,3.0,20,0.00,,,0.00,Wunderground v.1.13,2013-02-22 20:08:00,
2013-02-22 12:14:00,57.2,17.6,30.10,North,1,1.0,3.0,21,0.00,,,0.00,Wunderground v.1.13,2013-02-22 20:14:00,
2013-02-22 12:20:00,57.5,16.7,30.10,North,0,1.0,1.0,20,0.00,,,0.00,Wunderground v.1.13,2013-02-22 20:20:00,
2013-02-22 12:26:00,58.1,17.2,30.10,North,0,1.0,1.0,20,0.00,,,0.00,Wunderground v.1.13,2013-02-22 20:26:00,
2013-02-22 12:32:00,59.0,17.9,30.09,SE,136,1.0,6.0,20,0.00,,,0.00,Wunderground v.1.13,2013-02-22 20:32:00,
2013-02-22 12:38:00,59.2,16.9,30.09,SE,138,2.0,2.0,19,0.00,,,0.00,Wunderground v.1.13,2013-02-22 20:38:00,
2013-02-22 12:44:00,59.0,16.7,30.09,South,178,1.0,2.0,19,0.00,,,0.00,Wunderground v.1.13,2013-02-22 20:44:00,
2013-02-22 12:50:00,59.3,15.7,30.08,NNE,25,0.0,0.0,18,0.00,,,0.00,Wunderground v.1.13,2013-02-22 20:50:00,
2013-02-22 12:56:00,59.8,16.1,30.08,East,90,0.0,1.0,18,0.00,,,0.00,Wunderground v.1.13,2013-02-22 20:56:00,
2013-02-22 13:02:00,60.4,15.3,30.07,ESE,103,1.0,6.0,17,0.00,,,0.00,Wunderground v.1.13,2013-02-22 21:02:00,
2013-02-22 13:07:00,60.4,15.3,30.07,East,93,1.0,1.0,17,0.00,,,0.00,Wunderground v.1.13,2013-02-22 21:07:00,
2013-02-22 13:13:00,60.7,15.6,30.07,South,186,0.0,2.0,17,0.00,,,0.00,Wunderground v.1.13,2013-02-22 21:13:00,
2013-02-22 13:19:00,60.9,17.0,30.07,WSW,237,1.0,4.0,18,0.00,,,0.00,Wunderground v.1.13,2013-02-22 21:19:00,
2013-02-22 13:25:00,60.5,16.7,30.07,South,176,2.0,2.0,18,0.00,,,0.00,Wunderground v.1.13,2013-02-22 21:25:00,
2013-02-22 13:31:00,60.2,16.5,30.07,SSW,198,1.0,1.0,18,0.00,,,0.00,Wunderground v.1.13,2013-02-22 21:31:00,
2013-02-22 13:37:00,59.6,16.0,30.07,WSW,248,1.0,1.0,18,0.00,,,0.00,Wunderground v.1.13,2013-02-22 21:37:00,
2013-02-22 13:43:00,59.5,15.9,30.07,South,179,1.0,2.0,18,0.00,,,0.00,Wunderground v.1.13,2013-02-22 21:43:00,
2013-02-22 13:49:00,59.3,15.7,30.06,SE,140,1.0,3.0,18,0.00,,,0.00,Wunderground v.1.13,2013-02-22 21:49:00,
2013-02-22 13:55:00,59.3,15.7,30.06,ESE,104,2.0,3.0,18,0.00,,,0.00,Wunderground v.1.13,2013-02-22 21:55:00,
2013-02-22 14:01:00,59.3,15.7,30.06,SE,138,2.0,4.0,18,0.00,,,0.00,Wunderground v.1.13,2013-02-22 22:01:00,
2013-02-22 14:06:00,59.0,15.5,30.06,East,89,1.0,1.0,18,0.00,,,0.00,Wunderground v.1.13,2013-02-22 22:06:00,
2013-02-22 14:12:00,59.0,15.5,30.06,East,99,1.0,1.0,18,0.00,,,0.00,Wunderground v.1.13,2013-02-22 22:12:00,
2013-02-22 14:18:00,58.9,15.4,30.07,SE,134,1.0,1.0,18,0.00,,,0.00,Wunderground v.1.13,2013-02-22 22:18:00,
2013-02-22 14:24:00,59.5,15.9,30.07,SE,127,1.0,1.0,18,0.00,,,0.00,Wunderground v.1.13,2013-02-22 22:24:00,
2013-02-22 14:30:00,59.5,15.9,30.07,South,176,1.0,1.0,18,0.00,,,0.00,Wunderground v.1.13,2013-02-22 22:30:00,
2013-02-22 14:35:00,59.5,15.9,30.07,SSE,155,5.0,5.0,18,0.00,,,0.00,Wunderground v.1.13,2013-02-22 22:35:00,
2013-02-22 14:41:00,59.5,15.9,30.07,ENE,78,0.0,0.0,18,0.00,,,0.00,Wunderground v.1.13,2013-02-22 22:41:00,
2013-02-22 14:47:00,59.5,15.9,30.06,ESE,106,1.0,3.0,18,0.00,,,0.00,Wunderground v.1.13,2013-02-22 22:47:00,
2013-02-22 14:53:00,59.5,15.9,30.06,SE,134,3.0,3.0,18,0.00,,,0.00,Wunderground v.1.13,2013-02-22 22:53:00,
2013-02-22 14:59:00,59.5,15.9,30.06,East,88,2.0,5.0,18,0.00,,,0.00,Wunderground v.1.13,2013-02-22 22:59:00,
2013-02-22 15:05:00,59.5,15.9,30.06,East,99,2.0,2.0,18,0.00,,,0.00,Wunderground v.1.13,2013-02-22 23:05:00,
2013-02-22 15:11:00,59.5,15.9,30.06,SSE,165,1.0,1.0,18,0.00,,,0.00,Wunderground v.1.13,2013-02-22 23:11:00,
2013-02-22 15:16:00,59.5,15.9,30.05,South,175,0.0,0.0,18,0.00,,,0.00,Wunderground v.1.13,2013-02-22 23:16:00,
2013-02-22 15:22:00,59.5,15.9,30.05,SE,143,1.0,1.0,18,0.00,,,0.00,Wunderground v.1.13,2013-02-22 23:22:00,
2013-02-22 15:28:00,59.5,15.9,30.05,SE,133,2.0,2.0,18,0.00,,,0.00,Wunderground v.1.13,2013-02-22 23:28:00,
2013-02-22 15:34:00,59.5,15.9,30.05,SE,128,3.0,3.0,18,0.00,,,0.00,Wunderground v.1.13,2013-02-22 23:34:00,
2013-02-22 15:40:00,59.5,15.9,30.05,SSE,154,3.0,3.0,18,0.00,,,0.00,Wunderground v.1.13,2013-02-22 23:40:00,
2013-02-22 15:46:00,59.5,15.9,30.06,SE,134,3.0,3.0,18,0.00,,,0.00,Wunderground v.1.13,2013-02-22 23:46:00,
2013-02-22 15:52:00,59.5,15.9,30.06,SE,134,0.0,0.0,18,0.00,,,0.00,Wunderground v.1.13,2013-02-22 23:52:00,
2013-02-22 15:58:00,59.5,15.9,30.06,SE,136,0.0,0.0,18,0.00,,,0.00,Wunderground v.1.13,2013-02-22 23:58:00,
2013-02-22 16:04:00,59.5,15.9,30.06,SE,131,2.0,5.0,18,0.00,,,0.00,Wunderground v.1.13,2013-02-23 00:04:00,
2013-02-22 16:09:00,59.5,15.9,30.06,SE,126,0.0,2.0,18,0.00,,,0.00,Wunderground v.1.13,2013-02-23 00:09:00,
2013-02-22 16:15:00,59.5,15.9,30.06,ESE,112,1.0,1.0,18,0.00,,,0.00,Wunderground v.1.13,2013-02-23 00:15:00,
2013-02-22 16:21:00,59.5,15.9,30.06,ESE,112,0.0,0.0,18,0.00,,,0.00,Wunderground v.1.13,2013-02-23 00:21:00,
2013-02-22 16:27:00,59.5,15.9,30.06,ESE,121,1.0,1.0,18,0.00,,,0.00,Wunderground v.1.13,2013-02-23 00:27:00,
2013-02-22 16:33:00,59.5,15.9,30.06,ESE,112,0.0,0.0,18,0.00,,,0.00,Wunderground v.1.13,2013-02-23 00:33:00,
2013-02-22 16:39:00,59.5,15.9,30.06,SE,133,1.0,1.0,18,0.00,,,0.00,Wunderground v.1.13,2013-02-23 00:39:00,
2013-02-22 16:45:00,59.5,15.9,30.06,SE,144,1.0,1.0,18,0.00,,,0.00,Wunderground v.1.13,2013-02-23 00:45:00,
2013-02-22 16:50:00,59.5,15.9,30.06,SE,143,1.0,1.0,18,0.00,,,0.00,Wunderground v.1.13,2013-02-23 00:50:00,
2013-02-22 16:56:00,61.2,17.3,30.06,SE,128,1.0,1.0,18,0.00,,,0.00,Wunderground v.1.13,2013-02-23 00:56:00,
2013-02-22 17:02:00,61.2,17.3,30.06,ESE,117,0.0,3.0,18,0.00,,,0.00,Wunderground v.1.13,2013-02-23 01:02:00,
2013-02-22 17:07:00,60.7,16.9,30.06,ESE,117,1.0,1.0,18,0.00,,,0.00,Wunderground v.1.13,2013-02-23 01:07:00,
2013-02-22 17:13:00,60.2,16.5,30.06,WNW,299,1.0,2.0,18,0.00,,,0.00,Wunderground v.1.13,2013-02-23 01:13:00,
2013-02-22 17:19:00,59.0,15.5,30.07,NW,315,2.0,3.0,18,0.00,,,0.00,Wunderground v.1.13,2013-02-23 01:19:00,
2013-02-22 17:25:00,59.0,23.2,30.07,NW,305,1.0,1.0,25,0.00,,,0.00,Wunderground v.1.13,2013-02-23 01:25:00,
2013-02-22 17:31:00,57.6,22.0,30.07,NW,308,1.0,2.0,25,0.00,,,0.00,Wunderground v.1.13,2013-02-23 01:31:00,
2013-02-22 17:37:00,56.5,22.0,30.07,NNW,330,2.0,3.0,26,0.00,,,0.00,Wunderground v.1.13,2013-02-23 01:37:00,
2013-02-22 17:43:00,55.7,22.2,30.07,NW,318,3.0,4.0,27,0.00,,,0.00,Wunderground v.1.13,2013-02-23 01:43:00,
2013-02-22 17:48:00,55.0,22.4,30.08,NW,304,2.0,5.0,28,0.00,,,0.00,Wunderground v.1.13,2013-02-23 01:48:00,
2013-02-22 17:54:00,54.2,21.8,30.08,WNW,291,2.0,2.0,28,0.00,,,0.00,Wunderground v.1.13,2013-02-23 01:54:00,
2013-02-22 18:00:00,53.3,22.6,30.09,WSW,251,2.0,2.0,30,0.00,,,0.00,Wunderground v.1.13,2013-02-23 02:00:00,
2013-02-22 18:05:00,52.8,25.9,30.09,SW,230,2.0,2.0,35,0.00,,,0.00,Wunderground v.1.13,2013-02-23 02:05:00,
2013-02-22 18:11:00,51.9,28.3,30.09,WSW,240,2.0,7.0,40,0.00,,,0.00,Wunderground v.1.13,2013-02-23 02:11:00,
2013-02-22 18:16:00,51.0,29.3,30.11,SW,234,4.0,6.0,43,0.00,,,0.00,Wunderground v.1.13,2013-02-23 02:16:00,
2013-02-22 18:22:00,50.1,29.6,30.11,SW,229,5.0,6.0,45,0.00,,,0.00,Wunderground v.1.13,2013-02-23 02:22:00,
2013-02-22 18:28:00,49.4,30.0,30.11,SW,224,5.0,8.0,47,0.00,,,0.00,Wunderground v.1.13,2013-02-23 02:28:00,
2013-02-22 18:34:00,48.6,29.8,30.12,SW,224,4.0,6.0,48,0.00,,,0.00,Wunderground v.1.13,2013-02-23 02:34:00,
2013-02-22 18:40:00,48.2,29.9,30.12,WSW,237,5.0,5.0,49,0.00,,,0.00,Wunderground v.1.13,2013-02-23 02:40:00,
2013-02-22 18:46:00,47.7,30.0,30.12,WSW,239,5.0,6.0,50,0.00,,,0.00,Wunderground v.1.13,2013-02-23 02:46:00,
2013-02-22 18:52:00,47.4,29.7,30.12,WSW,248,5.0,6.0,50,0.00,,,0.00,Wunderground v.1.13,2013-02-23 02:52:00,
2013-02-22 18:58:00,47.0,29.8,30.12,SW,226,5.0,5.0,51,0.00,,,0.00,Wunderground v.1.13,2013-02-23 02:58:00,
2013-02-22 19:04:00,46.7,29.5,30.14,WSW,253,4.0,7.0,51,0.00,,,0.00,Wunderground v.1.13,2013-02-23 03:04:00,
2013-02-22 19:09:00,46.4,29.2,30.14,WSW,241,4.0,5.0,51,0.00,,,0.00,Wunderground v.1.13,2013-02-23 03:09:00,
2013-02-22 19:15:00,46.2,30.0,30.12,WSW,240,4.0,5.0,53,0.00,,,0.00,Wunderground v.1.13,2013-02-23 03:15:00,
2013-02-22 19:21:00,46.0,30.3,30.12,WSW,244,4.0,5.0,54,0.00,,,0.00,Wunderground v.1.13,2013-02-23 03:21:00,
2013-02-22 19:27:00,45.7,30.0,30.12,SW,236,4.0,5.0,54,0.00,,,0.00,Wunderground v.1.13,2013-02-23 03:27:00,
2013-02-22 19:33:00,45.2,30.0,30.13,WSW,239,4.0,4.0,55,0.00,,,0.00,Wunderground v.1.13,2013-02-23 03:33:00,
2013-02-22 19:39:00,44.9,30.1,30.13,WSW,251,2.0,3.0,56,0.00,,,0.00,Wunderground v.1.13,2013-02-23 03:39:00,
2013-02-22 19:45:00,44.6,29.4,30.13,WSW,251,1.0,1.0,55,0.00,,,0.00,Wunderground v.1.13,2013-02-23 03:45:00,
2013-02-22 19:51:00,44.3,29.1,30.13,WSW,251,2.0,2.0,55,0.00,,,0.00,Wunderground v.1.13,2013-02-23 03:51:00,
2013-02-22 19:56:00,44.1,28.5,30.13,WSW,251,1.0,3.0,54,0.00,,,0.00,Wunderground v.1.13,2013-02-23 03:56:00,
2013-02-22 20:02:00,43.8,28.2,30.14,WSW,251,1.0,11.0,54,0.00,,,0.00,Wunderground v.1.13,2013-02-23 04:02:00,
2013-02-22 20:08:00,43.5,27.9,30.14,WSW,251,1.0,1.0,54,0.00,,,0.00,Wunderground v.1.13,2013-02-23 04:08:00,
2013-02-22 20:14:00,43.2,27.7,30.14,WSW,251,0.0,0.0,54,0.00,,,0.00,Wunderground v.1.13,2013-02-23 04:14:00,
2013-02-22 20:20:00,43.1,27.6,30.12,North,359,0.0,3.0,54,0.00,,,0.00,Wunderground v.1.13,2013-02-23 04:20:00,
2013-02-22 20:26:00,42.9,26.9,30.12,North,359,1.0,1.0,53,0.00,,,0.00,Wunderground v.1.13,2013-02-23 04:26:00,
2013-02-22 20:32:00,43.1,27.6,30.13,East,90,1.0,3.0,54,0.00,,,0.00,Wunderground v.1.13,2013-02-23 04:32:00,
2013-02-22 20:37:00,43.3,27.3,30.13,East,90,1.0,1.0,53,0.00,,,0.00,Wunderground v.1.13,2013-02-23 04:37:00,
2013-02-22 20:42:00,43.5,27.0,30.13,East,90,1.0,2.0,52,0.00,,,0.00,Wunderground v.1.13,2013-02-23 04:42:00,
2013-02-22 20:48:00,43.3,26.4,30.13,East,90,1.0,1.0,51,0.00,,,0.00,Wunderground v.1.13,2013-02-23 04:48:00,
2013-02-22 20:54:00,43.1,25.7,30.13,East,90,0.0,1.0,50,0.00,,,0.00,Wunderground v.1.13,2013-02-23 04:54:00,
2013-02-22 21:00:00,42.6,25.7,30.13,East,90,0.0,0.0,51,0.00,,,0.00,Wunderground v.1.13,2013-02-23 05:00:00,
2013-02-22 21:01:00,42.5,25.6,30.13,SE,124,0.0,3.0,51,0.00,,,0.00,Wunderground v.1.13,2013-02-23 05:01:00,
2013-02-22 21:05:00,42.1,24.8,30.13,SSE,155,0.0,1.0,50,0.00,,,0.00,Wunderground v.1.13,2013-02-23 05:05:00,
2013-02-22 21:06:00,41.9,24.6,30.13,SSE,155,0.0,1.0,50,0.00,,,0.00,Wunderground v.1.13,2013-02-23 05:06:00,
2013-02-22 21:12:00,41.2,25.3,30.13,WSW,246,1.0,3.0,53,0.00,,,0.00,Wunderground v.1.13,2013-02-23 05:12:00,
2013-02-22 21:17:00,40.9,25.5,30.12,WSW,243,2.0,2.0,54,0.00,,,0.00,Wunderground v.1.13,2013-02-23 05:17:00,
2013-02-22 21:23:00,40.6,25.7,30.12,WSW,243,1.0,2.0,55,0.00,,,0.00,Wunderground v.1.13,2013-02-23 05:23:00,
2013-02-22 21:28:00,40.5,26.0,30.12,WSW,243,1.0,2.0,56,0.00,,,0.00,Wunderground v.1.13,2013-02-23 05:28:00,
2013-02-22 21:33:00,40.5,26.4,30.13,WSW,243,1.0,1.0,57,0.00,,,0.00,Wunderground v.1.13,2013-02-23 05:33:00,
2013-02-22 21:39:00,40.6,26.5,30.13,WSW,244,1.0,2.0,57,0.00,,,0.00,Wunderground v.1.13,2013-02-23 05:39:00,
2013-02-22 21:45:00,40.6,26.1,30.13,WSW,243,1.0,1.0,56,0.00,,,0.00,Wunderground v.1.13,2013-02-23 05:45:00,
2013-02-22 21:51:00,40.9,26.8,30.13,WSW,243,1.0,1.0,57,0.00,,,0.00,Wunderground v.1.13,2013-02-23 05:51:00,
2013-02-22 21:57:00,41.3,26.8,30.13,WSW,244,0.0,1.0,56,0.00,,,0.00,Wunderground v.1.13,2013-02-23 05:57:00,
2013-02-22 22:03:00,41.2,25.8,30.13,WSW,244,0.0,2.0,54,0.00,,,0.00,Wunderground v.1.13,2013-02-23 06:03:00,
2013-02-22 22:09:00,40.9,25.5,30.13,WSW,243,0.0,0.0,54,0.00,,,0.00,Wunderground v.1.13,2013-02-23 06:09:00,
2013-02-22 22:14:00,40.5,25.6,30.13,WSW,240,0.0,0.0,55,0.00,,,0.00,Wunderground v.1.13,2013-02-23 06:14:00,
2013-02-22 22:19:00,40.3,25.4,30.11,WSW,239,0.0,0.0,55,0.00,,,0.00,Wunderground v.1.13,2013-02-23 06:19:00,
2013-02-22 22:24:00,40.1,25.2,30.11,WSW,244,0.0,0.0,55,0.00,,,0.00,Wunderground v.1.13,2013-02-23 06:24:00,
2013-02-22 22:30:00,39.6,24.7,30.11,WSW,244,0.0,0.0,55,0.00,,,0.00,Wunderground v.1.13,2013-02-23 06:30:00,
2013-02-22 22:36:00,39.5,25.5,30.11,WSW,244,0.0,0.0,57,0.00,,,0.00,Wunderground v.1.13,2013-02-23 06:36:00,
2013-02-22 22:42:00,39.3,25.7,30.11,WSW,244,0.0,0.0,58,0.00,,,0.00,Wunderground v.1.13,2013-02-23 06:42:00,
2013-02-22 22:48:00,39.5,27.2,30.10,WSW,243,0.0,2.0,61,0.00,,,0.00,Wunderground v.1.13,2013-02-23 06:48:00,
2013-02-22 22:53:00,39.8,27.0,30.10,WSW,244,1.0,3.0,60,0.00,,,0.00,Wunderground v.1.13,2013-02-23 06:53:00,
2013-02-22 22:59:00,40.1,26.9,30.10,SSW,206,1.0,3.0,59,0.00,,,0.00,Wunderground v.1.13,2013-02-23 06:59:00,
2013-02-22 23:05:00,40.1,26.5,30.10,SSW,206,1.0,3.0,58,0.00,,,0.00,Wunderground v.1.13,2013-02-23 07:05:00,
2013-02-22 23:11:00,39.9,26.3,30.10,SW,234,1.0,2.0,58,0.00,,,0.00,Wunderground v.1.13,2013-02-23 07:11:00,
2013-02-22 23:17:00,39.5,25.9,30.08,SW,236,1.0,1.0,58,0.00,,,0.00,Wunderground v.1.13,2013-02-23 07:17:00,
2013-02-22 23:23:00,38.9,25.4,30.08,SW,234,1.0,1.0,58,0.00,,,0.00,Wunderground v.1.13,2013-02-23 07:23:00,
2013-02-22 23:29:00,38.3,25.2,30.08,SW,234,0.0,1.0,59,0.00,,,0.00,Wunderground v.1.13,2013-02-23 07:29:00,
2013-02-22 23:35:00,38.0,25.7,30.08,SW,234,0.0,0.0,61,0.00,,,0.00,Wunderground v.1.13,2013-02-23 07:35:00,
2013-02-22 23:41:00,37.9,25.6,30.08,SW,234,0.0,1.0,61,0.00,,,0.00,Wunderground v.1.13,2013-02-23 07:41:00,
2013-02-22 23:47:00,37.6,25.0,30.08,SW,234,0.0,0.0,60,0.00,,,0.00,Wunderground v.1.13,2013-02-23 07:47:00,
2013-02-22 23:53:00,37.5,24.9,30.08,SW,234,0.0,1.0,60,0.00,,,0.00,Wunderground v.1.13,2013-02-23 07:53:00,
2013-02-22 23:59:00,37.3,24.7,30.08,SW,234,0.0,1.0,60,0.00,,,0.00,Wunderground v.1.13,2013-02-23 07:59:00,